[[{"header":{"parameterUnit":"m.s-1","parameterCategory":1,"la1":30.2991,"la2":30.254,"lo1":-89.0895,"lo2":-89.0444,"dy":0.0017,"dx":0.0017,"nx":28,"ny":28,"refTime":"2025-08-13T21:00:00:Z","depth":0,"parameterNumber":2,"parameterNumberName":"U-component_of_WINDS"},"data":[0,0,0,0,0,0,0,0,0,0,0,0,0,0,0,0,0,0,0,0,0,0,0,0,0,0,0,0,0,0,0,0,0,0,0,0,0,0,0,0,0,0,0,0,0,0,0,0,0,0,0,0,0,0,0,0,0,0,1.6823,1.6824,0,1.6913,1.6914,1.6915,1.6919,1.6918,1.6917,1.6916,1.7012,1.7016,1.7019,0,0,0,0,0,0,0,0,0,0,0,0,0,1.666,1.6663,1.6823,1.6824,1.6825,1.6913,1.6914,1.6915,1.6919,1.6918,1.6917,1.6916,1.7011,1.7015,1.7019,0,0,0,0,0,0,0,0,0,0,0,0,0,1.6739,1.6664,1.6823,1.6838,1.684,1.6912,1.6914,1.6915,1.692,1.6918,1.6917,1.6915,1.701,1.7015,1.702,1.7085,0,0,1.7036,1.7039,0,0,0,0,0,0,0,0,1.6734,1.6744,1.6834,1.6837,1.6839,1.6903,1.6892,1.6972,1.692,1.689,1.6916,1.6914,1.6977,1.6985,1.7006,1.7089,1.7093,1.7037,1.704,1.7042,1.7044,0,0,0,0,0,0,0,1.6729,1.6741,1.6859,1.6836,1.6839,1.6842,1.6851,1.6907,1.6941,1.6892,1.6893,1.6903,1.6979,1.7001,1.7008,1.7095,1.7037,1.7041,1.7045,1.7047,1.7237,1.7239,0,0,0,0,0,0,1.672,1.6736,1.6856,1.6861,1.6782,1.6846,1.6856,1.6884,1.6941,1.6948,1.6904,1.6903,1.6992,1.7002,1.7011,1.7092,1.7042,1.7047,1.705,1.7236,1.7238,1.724,0,0,0,0,0,0,1.6716,1.673,1.6852,1.6799,1.6815,1.685,1.6882,1.6887,1.6909,1.695,1.6957,1.692,1.6991,1.7004,1.7066,1.7095,1.705,1.7054,1.7233,1.7236,1.7239,1.7252,0,0,0,0,0,0,1.6711,1.6729,1.6752,1.6799,1.6817,1.6904,1.6883,1.689,1.6918,1.6917,1.6967,1.6973,1.6991,1.7059,1.7072,1.7102,1.7059,1.7231,1.7235,1.7238,1.7249,1.7255,1.726,0,0,0,0,0,1.6706,1.6753,1.6754,1.6768,1.6847,1.6906,1.6916,1.6934,1.692,1.6945,1.6971,1.6972,1.709,1.7065,1.708,1.7112,1.7229,1.7234,1.7238,1.7247,1.7254,1.726,0,0,0,0,0,0,1.671,1.6759,1.6761,1.6824,1.6861,1.6906,1.6938,1.6941,1.6983,1.6981,1.7003,1.7014,1.7077,1.71,1.7072,1.7178,1.7158,1.7166,1.716,1.7167,1.7172,1.7165,1.7063,0,0,0,0,0,1.6718,1.676,1.6801,1.6854,1.6872,1.6902,1.6928,1.6939,1.6978,1.6994,1.7025,1.7064,1.711,1.714,1.7184,1.7253,1.7265,1.7282,1.7288,1.7292,1.7298,1.7338,1.7346,1.7254,1.7254,1.7254,0,0,1.6736,1.6768,1.6793,1.6856,1.6885,1.6929,1.6915,1.6962,1.6996,1.7001,1.7062,1.7087,1.7132,1.7198,1.7229,1.722,1.7326,1.7297,1.73,1.7304,1.7343,1.7352,1.7359,1.7257,1.7256,1.7256,0,0,1.679,1.6818,1.6866,1.6896,1.694,1.696,1.6971,1.7017,1.7033,1.7094,1.71,1.7141,1.7219,1.7252,1.7278,1.7347,1.735,1.7361,1.7389,1.7427,1.7435,1.7441,1.7467,1.7476,1.7367,1.7367,1.7367,0,1.6807,1.6872,1.689,1.6937,1.6966,1.6972,1.7021,1.705,1.7107,1.7127,1.7116,1.7215,1.7246,1.7321,1.7337,1.7359,1.7374,1.7356,1.7432,1.7439,1.7445,1.747,1.7479,1.7369,1.7368,1.7368,1.7368,0,1.6891,1.6937,1.697,1.7024,1.7056,1.7104,1.7131,1.7161,1.717,1.7192,1.7255,1.7292,1.7345,1.7364,1.7373,1.744,1.7433,1.7427,1.7407,1.7455,1.7478,1.7488,1.737,1.737,1.7369,1.7369,0,0,1.695,1.7014,1.7026,1.7051,1.7102,1.7138,1.7188,1.7238,1.7265,1.7304,1.7347,1.7414,1.7409,1.7439,1.7453,1.7486,1.754,1.7476,1.7477,1.7487,1.7617,1.7622,1.7632,1.7541,1.7543,1.7545,1.7614,0,1.7011,1.7097,1.7115,1.7191,1.7234,1.7242,1.7285,1.7321,1.7343,1.7385,1.741,1.7457,1.7446,1.7464,1.7498,1.7526,1.7566,1.7521,1.7583,1.7585,1.7571,1.7645,1.7649,1.7712,1.7623,1.7625,1.7626,0,1.7093,1.7134,1.7213,1.7259,1.7278,1.7316,1.7365,1.7404,1.7446,1.746,1.7495,1.7505,1.7558,1.7536,1.7611,1.758,1.7606,1.7624,1.7627,1.7634,1.7608,1.7654,1.7733,1.7742,1.764,1.7639,1.7638,0,1.7129,1.7204,1.7262,1.7283,1.7338,1.7365,1.7389,1.743,1.746,1.7503,1.7523,1.7572,1.7599,1.7638,1.7661,1.7643,1.7735,1.7714,1.7749,1.7749,1.7768,1.7767,1.7853,1.7785,1.7785,1.7784,1.7784,0,1.7195,1.7244,1.7279,1.7314,1.737,1.7391,1.7445,1.747,1.7506,1.7548,1.7558,1.7597,1.7626,1.767,1.7689,1.7748,1.7761,1.7774,1.7779,1.7774,1.7772,1.7791,1.7788,1.7787,1.7786,1.7786,1.7785,0,1.7245,1.727,1.7333,1.738,1.7393,1.7432,1.7472,1.7508,1.753,1.7583,1.7597,1.7633,1.7685,1.7712,1.7777,1.779,1.7858,1.786,1.7843,1.7845,1.7878,1.7875,1.7981,1.7996,1.7917,1.7918,1.7918,0,1.7285,1.7322,1.7373,1.7401,1.7426,1.7471,1.7501,1.7525,1.7556,1.7608,1.7638,1.769,1.7733,1.7817,1.7849,1.79,1.7903,1.7937,1.7911,1.7905,1.7905,1.7902,1.7906,1.7941,1.7942,1.7943,1.7943,0,1.7355,1.7366,1.7408,1.7456,1.7492,1.7531,1.7569,1.7592,1.7622,1.7657,1.771,1.7744,1.781,1.7863,1.7916,1.7943,1.7949,1.7951,1.7962,1.7957,1.7946,1.7953,1.7856,1.7949,1.7948,1.7948,1.7947,1.7947,1.7401,1.7435,1.7476,1.7524,1.7556,1.7592,1.7628,1.7655,1.7699,1.7754,1.7766,1.7822,1.7866,1.7937,1.7966,1.8011,1.8004,1.802,1.8024,1.8027,1.8029,1.7939,1.8021,1.8021,1.8021,1.8021,1.8021,0,1.7472,1.7499,1.7543,1.7596,1.7634,1.7635,1.7679,1.7711,1.776,1.7799,1.7841,1.7903,1.7954,1.7991,1.8044,1.8073,1.8078,1.8087,1.8085,1.8091,1.8032,1.8017,1.8082,1.8082,1.8082,1.8082,1.8082,1.8082,1.7513,1.7571,1.7587,1.7662,1.7689,1.7743,1.7768,1.7802,1.7833,1.7901,1.7944,1.7967,1.8006,1.8062,1.811,1.812,1.8139,1.8148,1.8158,1.8102,1.8095,1.8089,1.8075,1.8152,1.8152,1.8213,1.8214,1.8214]},{"header":{"parameterUnit":"m.s-1","parameterCategory":1,"la1":30.2991,"la2":30.254,"lo1":-89.0895,"lo2":-89.0444,"dy":0.0017,"dx":0.0017,"nx":28,"ny":28,"refTime":"2025-08-13T21:00:00:Z","depth":0,"parameterNumber":3,"parameterNumberName":"V-component_of_WINDS"},"data":[0,0,0,0,0,0,0,0,0,0,0,0,0,0,0,0,0,0,0,0,0,0,0,0,0,0,0,0,0,0,0,0,0,0,0,0,0,0,0,0,0,0,0,0,0,0,0,0,0,0,0,0,0,0,0,0,0,0,2.0983,2.0983,0,2.1005,2.1005,2.1006,2.1005,2.1005,2.1005,2.1004,2.1025,2.1025,2.1026,0,0,0,0,0,0,0,0,0,0,0,0,0,2.0935,2.0936,2.0983,2.0983,2.0984,2.1005,2.1005,2.1006,2.1005,2.1005,2.1004,2.1004,2.1024,2.1025,2.1026,0,0,0,0,0,0,0,0,0,0,0,0,0,2.0956,2.0936,2.0983,2.0986,2.0986,2.1005,2.1005,2.1006,2.1005,2.1005,2.1004,2.1004,2.1024,2.1025,2.1026,2.1043,0,0,2.103,2.1031,0,0,0,0,0,0,0,0,2.0955,2.0958,2.0985,2.0986,2.0986,2.1002,2.0996,2.1018,2.1005,2.0998,2.1004,2.1004,2.1017,2.1019,2.1024,2.1044,2.1045,2.103,2.1031,2.1031,2.1032,0,0,0,0,0,0,0,2.0953,2.0957,2.0992,2.0986,2.0986,2.0984,2.0987,2.1,2.101,2.0999,2.0999,2.1001,2.1017,2.1023,2.1025,2.1045,2.103,2.1031,2.1032,2.1033,2.1074,2.1075,0,0,0,0,0,0,2.0952,2.0956,2.0991,2.0992,2.0969,2.0986,2.0988,2.0997,2.101,2.1011,2.1002,2.1001,2.1021,2.1023,2.1025,2.1043,2.1031,2.1033,2.1033,2.1074,2.1074,2.1075,0,0,0,0,0,0,2.0951,2.0955,2.099,2.0974,2.0978,2.0987,2.0997,2.0998,2.1004,2.1012,2.1013,2.1006,2.1021,2.1024,2.1038,2.1043,2.1033,2.1034,2.1074,2.1074,2.1075,2.1079,0,0,0,0,0,0,2.0949,2.0955,2.0963,2.0974,2.0979,2.1004,2.0997,2.0999,2.1006,2.1006,2.1016,2.1018,2.1021,2.1036,2.1039,2.1045,2.1035,2.1073,2.1074,2.1075,2.1079,2.108,2.1081,0,0,0,0,0,2.0948,2.0964,2.0963,2.0967,2.099,2.1004,2.1007,2.1011,2.1007,2.1013,2.1018,2.1017,2.1042,2.1037,2.1041,2.1047,2.1073,2.1074,2.1074,2.1078,2.108,2.1081,0,0,0,0,0,0,2.0953,2.0965,2.0965,2.0985,2.0994,2.1004,2.1013,2.1013,2.1022,2.1022,2.1025,2.1027,2.1041,2.1045,2.104,2.1061,2.1057,2.1058,2.1058,2.106,2.1061,2.1059,2.1036,0,0,0,0,0,2.0956,2.0969,2.0978,2.0995,2.0999,2.1005,2.1012,2.1014,2.1022,2.1026,2.1032,2.1039,2.1048,2.1054,2.1063,2.1079,2.108,2.1085,2.1086,2.1087,2.1088,2.1093,2.1095,2.1078,2.1078,2.1078,0,0,2.0964,2.0972,2.098,2.0996,2.1003,2.1013,2.1009,2.1021,2.1028,2.1027,2.1041,2.1045,2.1053,2.1067,2.1073,2.1071,2.1093,2.1088,2.1089,2.1089,2.1094,2.1096,2.1097,2.1078,2.1078,2.1078,0,0,2.0982,2.0991,2.1004,2.101,2.102,2.1023,2.1026,2.1036,2.1039,2.1052,2.1051,2.1058,2.1075,2.108,2.1084,2.1099,2.1098,2.1102,2.1109,2.1113,2.1115,2.1116,2.1119,2.1121,2.1103,2.1103,2.1103,0,2.099,2.1007,2.1011,2.1022,2.1028,2.1027,2.1039,2.1045,2.1057,2.106,2.1057,2.1075,2.1081,2.1094,2.1097,2.1102,2.1103,2.1101,2.1115,2.1116,2.1117,2.112,2.1122,2.1104,2.1104,2.1104,2.1104,0,2.1015,2.1026,2.1035,2.1046,2.1053,2.1065,2.1068,2.1074,2.1074,2.1077,2.1088,2.1094,2.1103,2.1106,2.1107,2.1118,2.1116,2.1114,2.1109,2.1119,2.1122,2.1123,2.1104,2.1104,2.1104,2.1104,0,0,2.104,2.105,2.1053,2.1056,2.1065,2.1073,2.1083,2.1091,2.1095,2.1102,2.1109,2.1121,2.1118,2.1123,2.1124,2.1128,2.1136,2.1125,2.1125,2.1125,2.1146,2.1148,2.1149,2.1135,2.1135,2.1136,2.1145,0,2.1058,2.1076,2.1078,2.1094,2.1102,2.11,2.1107,2.1112,2.1114,2.112,2.1122,2.113,2.1126,2.1129,2.1133,2.1135,2.1141,2.1134,2.114,2.114,2.1138,2.1151,2.1154,2.1163,2.1147,2.1147,2.1147,0,2.1082,2.1089,2.1106,2.111,2.1113,2.1121,2.1127,2.1133,2.1137,2.1138,2.1142,2.1141,2.1148,2.1142,2.1151,2.1147,2.1148,2.1149,2.1149,2.115,2.1144,2.1151,2.1166,2.1167,2.1149,2.1149,2.1149,0,2.1096,2.1109,2.112,2.1123,2.1129,2.1133,2.1136,2.114,2.1143,2.1148,2.115,2.1155,2.1158,2.1161,2.116,2.1157,2.1168,2.1163,2.1167,2.1167,2.117,2.117,2.1184,2.1172,2.1172,2.1172,2.1172,0,2.1115,2.1125,2.1126,2.1132,2.1142,2.1142,2.1151,2.1153,2.1155,2.116,2.1158,2.1163,2.1162,2.1166,2.1165,2.1171,2.1173,2.1172,2.1172,2.1172,2.1172,2.1173,2.1172,2.1173,2.1173,2.1173,2.1172,0,2.1133,2.1134,2.1145,2.1148,2.1149,2.1156,2.1158,2.1163,2.1163,2.117,2.1171,2.1172,2.1176,2.1175,2.118,2.1179,2.1186,2.1185,2.1185,2.1184,2.1188,2.1187,2.1204,2.1205,2.1193,2.1193,2.1193,0,2.1145,2.1152,2.1155,2.1159,2.1161,2.1167,2.117,2.1169,2.1172,2.1175,2.1179,2.1183,2.1186,2.1192,2.1192,2.1195,2.1194,2.1199,2.1194,2.1193,2.1192,2.1191,2.1191,2.12,2.12,2.12,2.12,0,2.1165,2.1164,2.117,2.1174,2.1178,2.1181,2.1184,2.1187,2.1185,2.1189,2.1193,2.1195,2.1199,2.1202,2.1204,2.1204,2.1201,2.1202,2.1203,2.1203,2.1202,2.1201,2.1187,2.1202,2.1201,2.1201,2.1201,2.1201,2.1179,2.1184,2.1186,2.1191,2.1193,2.1195,2.1199,2.1199,2.1203,2.1206,2.1205,2.1209,2.1209,2.1211,2.1212,2.1214,2.1212,2.1213,2.1214,2.1214,2.1214,2.1201,2.1214,2.1214,2.1214,2.1214,2.1214,0,2.1198,2.1198,2.1203,2.1206,2.1209,2.1206,2.1208,2.1211,2.1214,2.1215,2.1218,2.1221,2.1223,2.1222,2.1223,2.1225,2.1223,2.1225,2.1225,2.1224,2.1216,2.1215,2.1226,2.1226,2.1226,2.1226,2.1226,2.1226,2.1208,2.1215,2.1214,2.1221,2.1221,2.1225,2.1226,2.1227,2.1228,2.1232,2.1233,2.1232,2.1232,2.1233,2.1233,2.1233,2.1233,2.1235,2.1234,2.1226,2.1225,2.1224,2.1223,2.1235,2.1235,2.1241,2.1242,2.1242]}]]